Погода в Малопесчанке

Россия / Кемеровская область (Кузбасс)     56°25′52″N   87°07′14″E
темп.,
°C
ветер,
м/с
пор.,
м/с
влажн.,
%
обл.,
%
осадки,
мм/ч
давл.,
гПа
погр.,
м
4 марта, чт
чт401:00−12ююз399486 0.1 1021299
04:00−14ююз4129267 0.0 1021353
07:00−13ююз5148980 0.0 1022492
10:00−11ююз71485100 0.0 1021638
13:00−9ююз81486100 0.0 1020736
16:00−6ююз81584100 0.1 1018792
19:00−6ююз61585100 0.1 1017674
22:00−6ююз71686100 0.0 1016660
5 марта, пт
пт501:00−5ююз71686100 0.0 1015690
04:00−6ююз71583100 0.0 1013560
07:00−6ююз71583100 0.0 1013540
10:00−5ююз71583100 0.0 1011644
13:00−3ююз81384100 0.0 10101084
16:00−2юз81488100 0.1 10091137
19:00−3юз81594100 0.4 10111058
22:00−6юз8178294 0.2 1015783
6 марта, сб
сб601:00−6ююз7158495 0.2 1015826
04:00−5юз81592100 0.8 10131179
07:00−5юз81592100 1.4 10141063
10:00−5юз91591100 0.6 10131047
13:00−4юз91591100 1.1 10121075
16:00−4юз91591100 0.8 10111256
19:00−5юз81590100 1.3 10111070
22:00−4юз81590100 0.5 10091012
7 марта, вс
вс701:00−4юз81689100 0.7 1009926
04:00−4юз71491100 0.1 1010796
07:00−5зюз61480100 1.3 1012887
10:00−7зюз6137885 0.0 1014609
13:00−5зюз6117276 0.0 1016819
16:00−5зюз5874100 0.0 1016778
19:00−7ююз1282100 0.0 101621
22:00−4ююв41196100 0.8 1014537
8 марта, пн
пн801:00−2ююз71490100 1.3 1012823
04:00−3юз61590100 0.1 1010814
07:00−2юз71686100 0.1 1010846
10:00−2юз71685100 0.0 1008806
13:00−1юз81587100 0.0 1008831
16:000юз81395100 0.6 1008901
19:00−1юз51196100 1.6 1008708
22:00−1зюз51196100 1.0 1009643